Regional Weather Roundup
Issued by NWS Tiyan, Guam

Current Version | Previous Version | Text Only | Print | Product List | Glossary On
Versions: 1 2 3 4 5 6 7 8 9 10 11 12 13 14 15 16 17 18 19 20 21 22 23 24 25 26 27 28 29 30 31 32 33 34 35 36 37 38 39 40 41 42 43 44 45 46 47 48 49 50
000
ASGM40 PGUM 181512
RWRGUM
WEATHER ROUNDUP FOR THE MARIANAS
NATIONAL WEATHER SERVICE TIYAN GU
100 AM CHST FRI SEP 19 2014

GUZ001>004-181600-
MARIANA ISLANDS-

CITY           SKY/WX    TMP DP  RH WIND       PRES   REMARKS
GUAM AIRPORT   LGT RAIN  81  75  83 NE8       29.92F FOG
ANDERSEN AFB   RAIN      77  75  94 NE8       29.91F
ROTA AIRPORT   NOT AVBL
TINIAN AP      NOT AVBL
SAIPAN AP      CLEAR     82  75  78 N8        29.89F

$$



USA.gov is the U.S. government's official web portal to all federal, state and local government web resources and services.